Location: Omaha
(41.2590°N, 95.9380°W)
Time: 10:41:40
(UTC-05:00)

Vanguard 2 - Visible Passes

Search period start: 23 July 2018 00:00
Search period end: 02 August 2018 00:00
Orbit: 553 x 2939 km, 32.9° (Epoch: 22 July)

Date Brightness Start Highest point End Pass type
(mag) Time Alt. Az. Time Alt. Az. Time Alt. Az.
23 Jul 10.8 01:26:52 10° W 01:39:42 27° SW 01:39:42 27° SW visible
23 Jul 10.5 21:20:11 10° W 21:35:43 63° S 21:52:58 10° ESE visible
23 Jul 10.5 23:31:28 10° W 23:47:33 46° SSW 23:54:29 33° SSE visible
24 Jul 11.1 01:46:26 10° W 01:55:50 20° SW 01:55:50 20° SW visible
24 Jul 10.5 21:38:18 10° W 21:53:49 60° SSW 22:09:19 14° ESE visible
24 Jul 10.6 23:49:57 10° W 00:05:19 39° SSW 00:10:40 33° S visible
25 Jul 11.4 02:07:15 10° WSW 02:12:02 14° WSW 02:12:02 14° WSW visible
25 Jul 10.5 21:56:27 10° W 22:11:53 55° SSW 22:25:33 19° SE visible
26 Jul 10.8 00:08:39 10° W 00:22:59 32° SW 00:26:55 30° SSW visible
26 Jul 10.6 22:14:42 10° W 22:29:53 50° SSW 22:41:50 22° SE visible
27 Jul 11.0 00:27:44 10° W 00:40:34 26° SW 00:43:12 25° SSW visible
27 Jul 10.7 22:33:01 10° W 22:47:47 43° SSW 22:58:11 24° SSE visible
28 Jul 11.2 00:47:29 10° W 00:58:05 19° SW 00:59:33 19° SW visible
28 Jul 10.9 22:51:32 10° W 23:05:37 36° SSW 23:14:34 24° SSE visible
29 Jul 11.5 01:08:49 10° WSW 01:15:34 13° SW 01:15:57 13° SW visible
29 Jul 10.6 20:58:51 10° W 21:12:16 52° SSW 21:29:10 10° SE visible
29 Jul 11.0 23:10:18 10° W 23:23:23 30° SW 23:31:02 22° S visible
30 Jul 10.7 21:17:04 10° W 21:30:17 46° SSW 21:46:10 11° SE visible
30 Jul 11.2 23:29:31 10° W 23:41:05 23° SW 23:47:33 19° SSW visible
31 Jul 10.9 21:35:26 10° W 21:48:15 39° SSW 22:02:45 12° SSE visible
31 Jul 11.4 23:49:38 10° WSW 23:58:46 17° SW 00:04:08 15° SSW visible
01 Aug 11.0 21:53:59 10° W 22:06:10 32° SSW 22:19:24 13° SSE visible
